This is the latest recevied weather packets stored in our database for station/object WP3OF-1. If no packets are shown the sender has not sent any weather packets the latest 10 day(s).
| Time | Temp. | Humidity | Pressure | Rain* | Wind** | Luminosity | Snow |
|---|---|---|---|---|---|---|---|
| 1777898462 | 27.78° C | 76% | 1018 hPa | 0 mm | - | - | - |
| 1777898159 | 27.78° C | 76% | 1017.9 hPa | 0 mm | - | - | - |
| 1777897856 | 27.22° C | 78% | 1017.9 hPa | 0 mm | - | - | - |
| 1777897552 | 27.78° C | 78% | 1018.1 hPa | 0 mm | - | - | - |
| 1777897247 | 27.78° C | 77% | 1017.9 hPa | 0 mm | - | - | - |
| 1777896944 | 27.78° C | 77% | 1017.7 hPa | 0 mm | - | - | - |
| 1777896641 | 27.22° C | 77% | 1018 hPa | 0 mm | - | - | - |
| 1777896337 | 27.22° C | 78% | 1017.9 hPa | 0 mm | - | - | - |
| 1777896036 | 27.22° C | 79% | 1017.9 hPa | 0 mm | - | - | - |
| 1777895733 | 26.67° C | 80% | 1018 hPa | 0 mm | - | - | - |
| 1777895431 | 26.67° C | 81% | 1017.9 hPa | 0 mm | - | - | - |
| 1777895128 | 26.67° C | 81% | 1017.8 hPa | 0 mm | - | - | - |
| 1777894825 | 26.67° C | 80% | 1017.9 hPa | 0 mm | - | - | - |
| 1777894522 | 26.67° C | 81% | 1017.8 hPa | 0 mm | - | - | - |
| 1777894220 | 26.67° C | 80% | 1017.8 hPa | 0 mm | - | - | - |
| 1777893916 | 26.67° C | 80% | 1017.5 hPa | 0 mm | - | - | - |
| 1777893613 | 26.67° C | 80% | 1017.8 hPa | 0 mm | - | - | - |
| 1777893309 | 26.67° C | 80% | 1017.5 hPa | 0 mm | - | - | - |
| 1777893005 | 26.11° C | 80% | 1017.6 hPa | 0 mm | - | - | - |
| 1777892702 | 26.11° C | 81% | 1017.4 hPa | 0 mm | - | - | - |
| 1777892397 | 25.56° C | 83% | 1017.6 hPa | 0 mm | - | - | - |
| 1777892094 | 25.56° C | 83% | 1017.5 hPa | 0 mm | - | - | - |
| 1777891792 | 26.11° C | 83% | 1017.4 hPa | 0 mm | - | - | - |
| 1777891488 | 26.11° C | 83% | 1017.2 hPa | 0 mm | - | - | - |
| 1777891184 | 25.56° C | 83% | 1017.1 hPa | 0 mm | - | - | - |
* Rain latest hour (hover to see other rain measurements)
** Current wind speed in m/s (hover to see current wind gust speed)